Погода в Чумае

Россия / Кемеровская область (Кузбасс)     55°44′22″N   87°46′17″E
темп.,
°C
ветер,
м/с
пор.,
м/с
влажн.,
%
обл.,
%
осадки,
мм/ч
давл.,
гПа
погр.,
м
28 ноября, вс
вс2801:00−7юз101885100 0.8 10261061
04:00−7юз91988100 0.5 10251134
07:00−6юз91689100 1.3 10251071
10:00−7юз81589100 0.6 1027841
13:00−6юз8158797 0.8 1028728
16:00−6юз81586100 0.1 1030708
19:00−7юз8168590 0.1 1032726
22:00−7юз7168688 0.1 1033648
29 ноября, пн
пн2901:00−8юз7168695 0.1 1034593
04:00−8юз61487100 0.0 1035554
07:00−8юз61587100 0.1 1035491
10:00−8юз6168686 0.0 1035481
13:00−6юз71586100 0.0 1034550
16:00−6юз61585100 0.0 1033526
19:00−7юз61582100 0.0 1032456
22:00−6юз61679100 0.0 1031480
30 ноября, вт
вт3001:00−7юз71674100 0.0 1030460
04:00−7юз61771100 0.0 1029444
07:00−7юз71769100 0.0 1028431
10:00−6юз8196774 0.0 1027458
13:00−5юз8187099 0.0 1027537
16:00−6юз8187186 0.0 1026486
19:00−6юз7177222 0.0 1027461
22:00−6юз717715 0.0 1027434
1 декабря, ср
ср101:00−6юз717693 0.0 1027422
04:00−7юз615736 0.0 1028362
07:00−7юз5147389 0.0 1028326
10:00−7юз5147253 0.0 1028347
13:00−4юз7167144 0.0 1027482
16:00−5юз6167190 0.0 1027436
19:00−4юз7176961 0.0 1026468
22:00−4юз7186851 0.0 1025487
2 декабря, чт
чт201:00−4юз71967100 0.0 1024442
04:00−4юз71868100 0.0 1024424
07:00−5юз6166898 0.0 1024383
10:00−4юз71765100 0.0 1024411
13:00−2юз71864100 0.0 1022497
16:00−1юз71963100 0.0 1021510
19:00−1юз8196195 0.0 1020481
22:000юз8205799 0.0 1018490